Tacoma Narrows, WA
on Friday, January 18, 2013

Friday
Previous Day Next Day
Daily Summary
 ActualAverageRecord
Temperature
Mean Temperature °F °F  
Max Temperature 37°F 44°F 60°F (2005)
Min Temperature 32°F 37°F 28°F (2012)
Degree Days
Heating Degree Days 30    
Moisture
Dew Point 32°F   
Average Humidity 91    
Maximum Humidity 96    
Minimum Humidity 82    
Precipitation
Precipitation 0.00 in in in ()
Wind
Wind Speed 2 mph   
Max Wind Speed 7 mph   
Max Gust Speed mph   
Visibility 4 miles   
Events Fog   
Averages and records for this station are not official NWS values.
Key: T is trace of precipitation, MM is missing value
Source: NWS Daily Summary
Seasonal Weather Averages
Time(PST)TemperatureDew PointHumidity Pressure Visibility Wind DirectionWind SpeedGust SpeedPrecipitationEvents Conditions
12:53 AM 34.0°F 32.0°F 92% 30.30 in 0.2 miles South 4.6 mph - N/A Fog Fog
1:53 AM 32.0°F 30.9°F 96% 30.30 in 0.2 miles South 4.6 mph - N/A Fog Fog
2:53 AM 32.0°F 30.9°F 96% 30.30 in 0.2 miles Calm Calm - N/A Fog Fog
3:42 AM 32.0°F 30.2°F 93% 30.27 in 0.5 miles Calm Calm - N/A Fog Fog
3:50 AM 32.0°F 30.2°F 93% 30.27 in 0.2 miles Calm Calm - N/A Fog Fog
3:53 AM 32.0°F 30.0°F 92% 30.29 in 0.2 miles Calm Calm - N/A Fog Fog
4:03 AM 32.0°F 30.2°F 93% 30.27 in 0.8 miles Calm Calm - N/A   Mist
4:53 AM 32.0°F 30.9°F 96% 30.28 in 0.8 miles Calm Calm - N/A   Mist
5:02 AM 32.0°F 30.2°F 93% 30.26 in 2.0 miles Calm Calm - N/A   Overcast
5:11 AM 32.0°F 30.2°F 93% 30.26 in 4.0 miles Calm Calm - N/A   Overcast
5:28 AM 32.0°F 30.2°F 93% 30.26 in 2.5 miles Calm Calm - N/A   Overcast
5:36 AM 32.0°F 30.2°F 93% 30.26 in 0.8 miles Calm Calm - N/A   Mist
5:53 AM 32.0°F 30.9°F 96% 30.28 in 0.8 miles Calm Calm - N/A   Mist
6:53 AM 32.0°F 30.9°F 96% 30.28 in 0.8 miles Calm Calm - N/A   Mist
7:14 AM 32.0°F 30.2°F 93% 30.27 in 2.0 miles Calm Calm - N/A   Overcast
7:24 AM 32.0°F 30.2°F 93% 30.27 in 1.0 miles Calm Calm - N/A   Mist
7:33 AM 32.0°F 30.2°F 93% 30.27 in 4.0 miles South 3.5 mph - N/A   Overcast
7:53 AM 32.0°F 30.0°F 92% 30.29 in 5.0 miles South 3.5 mph - N/A   Overcast
8:15 AM 32.0°F 30.2°F 93% 30.27 in 1.0 miles South 4.6 mph - N/A   Overcast
8:53 AM 32.0°F 30.0°F 92% 30.30 in 1.5 miles Calm Calm - N/A   Mostly Cloudy
9:53 AM 33.1°F 30.9°F 92% 30.32 in 1.0 miles NNE 3.5 mph - N/A   Overcast
10:53 AM 35.1°F 32.0°F 89% 30.32 in 2.0 miles Calm Calm - N/A   Overcast
11:53 AM 36.0°F 32.0°F 86% 30.30 in 2.0 miles Calm Calm - N/A   Overcast
12:04 PM 35.6°F 32.0°F 87% 30.29 in 3.0 miles Calm Calm - N/A   Overcast
12:53 PM 37.0°F 33.1°F 86% 30.30 in 3.0 miles Calm Calm - N/A   Overcast
1:53 PM 37.0°F 32.0°F 82% 30.30 in 4.0 miles NNE 4.6 mph - N/A   Haze
2:53 PM 37.9°F 33.1°F 83% 30.31 in 4.0 miles NNE 3.5 mph - N/A   Haze
3:53 PM 37.9°F 34.0°F 86% 30.32 in 10.0 miles Calm Calm - N/A   Overcast
4:53 PM 37.9°F 34.0°F 86% 30.31 in 10.0 miles NNW 5.8 mph - N/A   Overcast
5:53 PM 37.9°F 34.0°F 86% 30.32 in 10.0 miles NNE 3.5 mph - N/A   Overcast
6:53 PM 37.0°F 34.0°F 89% 30.32 in 10.0 miles Calm Calm - N/A   Overcast
7:53 PM 36.0°F 33.1°F 89% 30.33 in 9.0 miles Calm Calm - N/A   Overcast
8:36 PM 35.6°F 33.8°F 93% 30.32 in 10.0 miles North 3.5 mph - N/A   Overcast
8:53 PM 36.0°F 33.1°F 89% 30.34 in 10.0 miles NNE 3.5 mph - N/A   Overcast
9:53 PM 36.0°F 33.1°F 89% 30.35 in 9.0 miles NNE 4.6 mph - N/A   Overcast
10:53 PM 36.0°F 33.1°F 89% 30.35 in 9.0 miles North 4.6 mph - N/A   Overcast
11:53 PM 35.1°F 33.1°F 92% 30.35 in 4.0 miles North 6.9 mph - N/A   Overcast
Moon Phase
Jan. 18 Jan. 18 Jan. 26 Feb. 03 Feb. 10
Sunrise:07:50 AM (PST) Moon Rise:10:57 AM (PST)1/18
Sunset:04:52 PM (PST) Moon Set:12:20 AM (PST)1/18

Copyright © 2014 The Weather Underground, Inc.